カタログに戻る

DELTA 1 R/B

運用中SSO
NORAD 2096·ROCKET BODY·🇺🇸 United States

打ち上げ Feb 28, 1966 から Cape Canaveral Space Force Station

Loading…

次のパス (今後24時間)

TLE

最新Source: Space-Track

元期: Sep 14, 2026, 12:27 UTC

1 02096U 66016B   26257.51941238 -.00000046  00000-0 -22166-4 0  9994
2 02096 100.8743  90.2556 0039819 338.2878  46.4408 12.70001522805412

AllMySatでDELTA 1 R/Bをリアルタイム追跡

Download on the App Store